This demonstration page uses our WeatherBlox Daily Observations layout. Learn more.

Left ArrowRight Arrow

39.92423, -83.80882

Hourly Observations for July 6, 2019

Temp ( °F °C ) Dew Point ( °F °C ) Humidity (%) Winds ( mph kmh ) Pressure ( in mb ) Visibility ( mi km ) Precip ( " mm )
12:56 am 00:56 Clear 76 24.4 74 23.3 94 94 WSW 5 7 30.01 1016 10 16.0934 N/A
1:56 am 01:56 Clear 75 23.9 73 22.8 94 94 SW 5 7 30 1016 10 16.0934 N/A
2:56 am 02:56 Clear 74 23.3 73 22.8 97 97 SSW 3 6 29.99 1016 10 16.0934 N/A
3:56 am 03:56 Clear 74 23.3 74 23.3 100 100 N N/A 29.98 1015 10 16.0934 N/A
4:56 am 04:56 Clear 73 22.8 73 22.8 100 100 SW 7 11 29.99 1016 7 11.26538 N/A
5:56 am 05:56 Clear with Mist and Fog 73 22.8 73 22.8 100 100 WSW 6 9 30 1016 6 9.65604 N/A
6:56 am 06:56 Sunny with Mist and Fog 72 22.2 72 22.2 100 100 N N/A 30.01 1016 3 4.82802 N/A
7:56 am 07:56 Sunny 77 25 75 23.9 94 94 W 5 7 30.02 1017 9 14.48406 N/A
8:56 am 08:56 Sunny 80 26.7 74 23.3 82 82 WSW 6 9 30.03 1017 10 16.0934 N/A
9:56 am 09:56 Sunny 81 27.2 74 23.3 79 79 WSW 7 11 30.02 1017 10 16.0934 N/A
10:56 am 10:56 Mostly Sunny 84 28.9 75 23.9 74 74 SSW 6 9 30.01 1016 10 16.0934 N/A
11:56 am 11:56 Sunny 85 29.4 74 23.3 70 70 SW 7 11 30.01 1016 10 16.0934 N/A
12:56 pm 12:56 Partly Cloudy 86 30 75 23.9 70 70 SSW 6 9 30 1016 10 16.0934 N/A
1:56 pm 13:56 undefined 86 30 75 23.9 70 70 undefined N/A N/A 10 16.0934 N/A
2:56 pm 14:56 Partly Cloudy 88 31.1 75 23.9 66 66 SSW 8 13 29.93 1014 10 16.0934 N/A
3:56 pm 15:56 Mostly Sunny 88 31.1 74 23.3 63 63 WSW 13 20 29.92 1013 10 16.0934 N/A
4:29 pm 16:29 Mostly Cloudy with Nearby Thunderstorms 88 31 75 24 66 66 W 15 24 29.88 1012 10 16.0934 N/A
4:44 pm 16:44 Mostly Cloudy 88 31 77 25 70 70 W 14 22 29.87 1012 10 16.0934 N/A
4:56 pm 16:56 Partly Cloudy 88 31.1 76 24.4 68 68 W 12 19 29.91 1013 10 16.0934 N/A
5:56 pm 17:56 Mostly Sunny 88 31.1 75 23.9 66 66 WNW 12 19 29.9 1012 10 16.0934 N/A
6:30 pm 18:30 Partly Cloudy with Nearby Thunderstorms 82 28 73 23 74 74 NNW 20 31 29.87 1012 10 16.0934 N/A
6:56 pm 18:56 Partly Cloudy with Nearby Thunderstorms 81 27.2 74 23.3 79 79 NNW 12 19 29.93 1013 10 16.0934 N/A
7:03 pm 19:03 Partly Cloudy with Nearby Thunderstorms 81 27 73 23 79 79 NNW 8 13 29.91 1013 10 16.0934 N/A
7:28 pm 19:28 Mostly Cloudy 81 27 73 23 79 79 NW 7 11 29.91 1013 10 16.0934 N/A
7:56 pm 19:56 Mostly Sunny 79 26.1 74 23.3 85 85 WSW 10 17 29.95 1014 10 16.0934 N/A
8:56 pm 20:56 Cloudy 77 25 74 23.3 90 90 S 3 6 29.95 1014 10 16.0934 N/A
9:56 pm 21:56 Mostly Cloudy with Light Rain 75 23.9 75 23.9 100 100 SSE 6 9 29.95 1014 10 16.0934 N/A
10:56 pm 22:56 Mostly Clear 74 23.3 74 23.3 100 100 N N/A 29.96 1014 10 16.0934 N/A
11:56 pm 23:56 Mostly Clear 74 23.3 74 23.3 100 100 N N/A 29.95 1014 10 16.0934 N/A

Powered by AerisWeather